Location: Unspecified
(0.0000°N, 0.0000°E)
Time: 20:04:28
(UTC+02:00)

ISS - Visible Passes

Search period start: 23 September 2017 00:00
Search period end: 03 October 2017 00:00
Orbit: 401 x 407 km, 51.6° (Epoch: 24 September)

Date Brightness Start Highest point End Pass type
(mag) Time Alt. Az. Time Alt. Az. Time Alt. Az.
24 Sep -3.3 07:13:30 10° NNW 07:16:44 63° NE 07:19:59 10° SE visible
25 Sep -1.4 06:22:43 15° NNE 06:24:29 22° NE 06:27:05 10° ESE visible
26 Sep -2.8 07:06:40 17° WNW 07:08:28 28° SW 07:11:21 10° S visible
27 Sep -2.2 06:17:44 29° SSE 06:17:44 29° SSE 06:19:29 10° SE visible
